Regional Weather Roundup
Issued by NWS

Home | Current Version | Previous Version | Text Only | Print | Product List | Glossary On
Versions: 1 2 3 4 5 6 7 8 9 10 11 12 13 14 15 16 17 18 19 20 21 22 23 24 25 26 27 28 29 30 31 32 33 34 35 36 37 38 39 40 41 42 43 44 45 46 47 48 49 50
000
ASUS42 KFFC 260103
RWRGA
WEATHER ROUNDUP FOR GEORGIA
NATIONAL WEATHER SERVICE PEACHTREE CITY GA
800 PM EST SUN JAN 25 2015

NOTE: "FAIR" INDICATES FEW OR NO CLOUDS BELOW 12,000 FEET WITH NO
SIGNIFICANT WEATHER AND/OR OBSTRUCTIONS TO VISIBILITY.

* = USE WITH CAUTION. THE STATIONS MARKED WITH AN ASTERISK MAY NOT
REPORT WEATHER SUCH AS PRECIPITATION, FOG, OR THUNDER AND ARE NOT
QUALITY CONTROLLED BY NWS.

THE REMARK "TC" DENOTES TEMPERATURE READING IN DEGREES CELSIUS.

GAZ001>058-260200-
NORTH GEORGIA

CITY           SKY/WX    TMP DP  RH WIND       PRES   REMARKS
ATLANTA        CLOUDY    53  32  44 S8        29.77R
ATHENS         MOCLDY    51  31  46 S6        29.78R
CHAMBLEE       CLOUDY    54  32  43 S8        29.76R
PEACHTREE CITY MOCLDY    48  35  60 SE3       29.78F
ROME           CLOUDY    50  41  71 SW5       29.75S
WEST ATLANTA   CLOUDY    55  32  41 S6        29.76R
GAINESVILLE    CLOUDY    52  29  41 S5        29.77S
CARTERSVILLE   LGT RAIN  50  39  66 VRB3      29.79R


CITY           SKY/WX    TMP DP  RH WIND       PRES   REMARKS
DALTON*        MOCLDY    50  39  66 CALM      29.76S
LAWRENCEVILLE* CLOUDY    54  28  37 S7        29.76R
KENNESAW*      CLOUDY   N/A N/A N/A W6        29.77S
$$

GAZ059>098-102>109-260200-
CENTRAL GEORGIA

CITY           SKY/WX    TMP DP  RH WIND       PRES   REMARKS
AUGUSTA-BUSH   CLEAR     46  31  55 S7        29.83S
AUGUSTA-DANIEL CLEAR     53  31  42 S6        29.83R
COLUMBUS       CLEAR     53  35  50 SW9       29.80R
MACON          CLEAR     51  34  52 S3        29.81R
ROBINS AFB     CLEAR     51  35  53 S3        29.79R


CITY           SKY/WX    TMP DP  RH WIND       PRES   REMARKS
LAGRANGE*      CLOUDY    54  39  55 S5        29.79S
SYLVANIA*      CLEAR     45  36  68 CALM      29.86S
MILLEDGEVILLE* CLEAR     48  36  61 CALM      29.82R
$$

GAZ099>101-110>166-260200-
SOUTH GEORGIA

CITY           SKY/WX    TMP DP  RH WIND       PRES   REMARKS
SAVANNAH       CLEAR     49  42  77 S9        29.88S
VALDOSTA       CLEAR     52  42  69 S8        29.92R
ALMA           CLEAR     50  35  56 S6        29.87S
ST SIMONS      CLEAR     55  36  48 S7        29.91S
FT STEWART     CLEAR     51  35  53 S5        29.86F
ALBANY         CLEAR     56  43  61 SW13G20   29.86S
HUNTER AFB     CLEAR     51  45  81 S7        29.85F
MOODY AFB      CLEAR     53  42  66 S12       29.90R
BRUNSWICK      CLEAR     50  43  76 S5        29.91S


CITY           SKY/WX    TMP DP  RH WIND       PRES   REMARKS
BAINBRIDGE*    MOCLDY    59  50  72 SW7       29.87S
MOULTRIE*      PTCLDY    52  43  71 S8        29.90R
VIDALIA*       CLEAR     50  36  57 S6        29.85F
WAYCROSS*      CLEAR     55  42  61 SW10      29.89R
DOUGLAS*       CLEAR     54  37  54 SW12      29.89R
$$



USA.gov is the U.S. government's official web portal to all federal, state and local government web resources and services.